Wind_Speed
28 26 25 24 22 21 21 19 20 19 18 21 22 21 20 19 18 15 13 11 9 9 12 10 8 6 3 2 8 3 8 9 23 20 16 7 6 5 4 5 5 4 4 4 2 7 7
30 29 28 25 24 22 21 20 20 19 19 20 24 22 19 18 18 13 11 9 8 9 9 8 6 3 1 3 4 5 7 8 18 20 9 7 6 6 2 2 5 5 4 4 4 8 6
32 31 30 27 24 23 22 21 21 18 20 20 23 22 18 16 15 12 9 8 7 7 6 6 3 0 1 12 5 5 12 6 14 23 7 15 9 3 4 1 1 6 6 4 4 4 4
34 33 32 29 24 26 23 22 21 19 19 20 21 20 17 15 12 11 8 6 5 5 5 3 1 2 7 7 8 18 13 7 11 18 13 5 17 3 4 4 3 3 4 4 2 4 2
40 35 34 31 26 27 25 23 20 20 19 19 19 18 17 14 10 8 6 4 4 3 1 2 2 2 8 10 7 2 5 2 7 10 10 7 11 3 2 3 3 6 3 2 4 6 5
29 37 37 34 28 28 25 24 21 20 19 18 17 16 15 12 9 7 5 4 4 2 2 3 3 3 7 2 5 6 1 2 3 6 4 4 2 3 2 3 5 4 4 0 3 4 10
31 39 38 37 31 29 27 24 22 20 18 18 16 15 13 10 10 10 12 9 2 2 4 7 3 3 5 11 4 2 2 5 3 6 2 1 3 3 3 2 2 5 4 4 3 2 7
36 26 40 38 34 31 27 25 24 21 18 16 15 12 11 9 12 13 12 4 5 1 4 12 5 6 12 4 2 3 1 3 2 4 2 4 3 2 4 5 5 4 9 4 4 2 5
35 36 39 40 36 33 30 26 25 21 19 16 14 11 11 11 13 13 10 11 3 7 1 2 5 5 4 7 3 3 1 2 4 1 2 3 1 2 4 4 6 3 6 3 5 6 6
34 35 32 43 38 35 31 27 26 21 18 16 13 12 13 16 10 7 7 6 7 5 3 3 3 4 3 3 2 1 3 3 4 4 4 3 3 4 3 4 2 4 1 5 8 2 2
35 34 34 45 40 37 32 29 26 22 18 15 14 15 16 19 6 6 2 4 3 2 3 3 3 3 1 4 3 2 6 5 6 5 3 1 2 3 5 1 1 4 3 4 3 4 3
36 36 39 43 41 40 34 30 27 23 20 15 16 17 18 23 9 9 3 1 4 5 3 2 2 4 4 4 3 3 4 7 4 4 5 2 2 2 2 3 3 9 5 6 4 2 2
36 37 36 34 44 41 35 32 28 24 20 16 18 21 25 13 3 3 2 4 3 3 2 2 3 3 3 2 4 4 4 3 3 4 3 4 3 2 2 4 3 3 4 1 1 0 3
33 34 33 35 47 43 36 33 28 24 19 18 18 20 24 24 7 2 3 3 3 3 5 0 3 3 4 3 2 3 3 3 4 4 3 3 0 3 5 2 3 3 2 4 4 3 1
33 34 32 38 49 44 37 34 28 24 19 17 18 16 11 24 22 12 4 3 6 6 4 6 3 5 1 1 4 3 3 2 1 2 4 4 1 2 4 1 0 3 2 2 6 2 0
33 32 35 41 49 44 38 34 28 25 20 21 17 11 7 11 11 7 4 5 4 4 2 3 4 3 4 3 3 2 1 1 2 1 1 5 3 1 1 1 6 1 7 3 2 3 3
33 32 32 23 47 43 38 34 29 24 22 23 10 3 7 11 11 4 4 5 5 5 4 4 5 4 3 4 3 2 3 1 1 2 2 3 3 2 1 1 4 3 2 5 4 1 2
31 31 29 28 44 42 39 34 30 25 23 29 6 3 5 12 3 0 4 5 3 3 2 2 4 3 5 3 3 3 5 1 1 1 4 1 4 3 1 1 1 1 3 4 3 4 1
31 32 33 30 42 42 40 35 31 27 31 19 4 2 2 4 4 1 2 3 2 1 1 3 3 3 3 4 4 3 3 1 1 3 5 5 1 3 2 2 1 2 3 4 5 2 5
32 30 36 37 44 43 40 36 32 31 35 20 3 3 3 3 0 8 5 4 2 2 1 4 5 4 4 3 4 5 3 1 1 2 6 5 2 4 7 3 2 4 4 4 4 3 4
28 29 38 39 46 43 40 36 32 33 40 11 1 3 3 4 2 5 4 6 5 3 2 2 4 3 5 4 2 3 2 2 3 3 3 2 4 2 1 1 1 2 4 8 8 4 6
31 35 35 48 45 42 38 34 32 35 42 4 4 4 3 2 5 7 2 7 7 3 2 1 6 3 2 5 5 8 6 4 4 2 2 2 3 2 3 1 3 3 5 7 7 4 10
26 36 44 44 41 39 36 33 33 37 41 5 4 3 4 3 3 5 6 6 7 7 2 3 6 5 4 1 3 3 6 7 5 5 3 2 5 3 3 3 2 5 9 12 6 6 9
36 43 42 39 37 35 33 31 31 39 37 6 6 5 4 2 3 5 8 4 7 4 7 3 3 4 1 10 8 8 11 12 12 9 3 5 4 2 2 2 1 4 2 3 12 7 14
41 40 38 34 33 31 30 28 32 41 41 3 7 5 4 3 2 3 6 5 6 5 4 3 3 1 8 3 4 4 4 5 5 7 6 3 4 3 3 3 5 5 4 6 7 6 12
36 34 32 30 29 28 27 29 35 43 42 7 9 8 4 7 5 5 5 4 5 4 3 3 3 5 5 3 3 4 3 3 1 1 3 5 6 3 3 3 5 5 2 2 3 4 2
32 29 26 26 26 24 25 29 36 43 39 8 8 7 5 4 1 4 4 6 5 4 4 4 5 2 2 2 3 3 3 1 3 5 2 2 2 3 2 3 7 6 2 2 2 5 1
27 26 25 23 21 21 23 28 36 43 37 8 8 7 3 3 1 1 2 5 3 2 5 5 4 2 2 3 3 3 3 4 2 3 4 5 6 3 3 1 6 5 3 4 4 2 2
28 26 22 19 18 18 21 28 36 42 36 11 6 7 9 4 3 7 13 8 1 5 6 1 3 4 4 4 1 3 2 1 2 3 1 3 4 3 8 5 3 6 4 2 2 3 2
Wind_Direction
258 258 259 263 268 266 268 279 282 282 288 294 297 299 302 297 287 288 281 279 284 288 287 290 300 322 337 260 250 273 38 160 170 179 177 160 159 172 193 204 154 198 209 199 341 127 133
256 257 256 257 265 266 267 277 279 279 286 292 300 298 303 298 288 283 280 276 282 275 276 285 291 338 5 271 247 223 7 159 179 181 180 163 200 205 216 238 186 200 148 141 127 156 125
253 255 254 255 260 263 264 272 274 275 284 291 299 301 301 296 286 281 277 272 272 271 269 270 278 307 284 243 265 223 304 223 203 191 165 207 208 181 165 236 274 141 90 104 73 150 108
248 251 253 250 252 262 262 267 271 272 280 290 298 299 298 293 287 275 266 261 253 256 256 252 212 227 248 258 273 278 275 238 212 208 210 206 215 248 288 125 36 75 78 106 4 99 80
244 248 248 249 250 256 262 263 263 269 277 287 293 293 291 286 272 260 246 227 241 230 177 115 173 226 268 301 259 304 215 166 149 194 211 74 143 178 111 131 68 21 138 124 127 43 129
249 246 247 245 246 253 258 260 259 263 274 282 287 286 282 273 251 223 202 117 113 99 159 204 254 284 270 294 313 318 230 104 128 119 124 159 119 138 74 158 170 161 126 113 139 34 67
257 242 245 245 244 246 254 253 255 259 268 278 282 280 274 253 221 191 151 109 86 225 219 199 196 276 284 313 308 311 340 106 0 68 119 8 147 155 142 120 135 134 126 128 44 56 76
259 252 243 244 243 245 248 248 250 256 262 270 274 269 256 229 200 180 164 151 239 166 295 218 247 276 273 259 310 315 340 86 30 54 3 36 81 317 77 82 88 104 128 86 102 63 94
257 249 238 242 241 242 245 242 246 248 256 265 263 249 228 195 179 175 205 213 188 315 231 275 190 214 233 161 190 248 80 111 80 336 26 121 133 100 75 82 101 53 113 140 122 114 84
252 253 248 238 237 238 241 239 240 243 250 257 248 231 205 176 173 189 228 249 250 203 78 270 238 259 141 148 65 323 47 127 61 153 116 84 337 86 91 92 150 93 33 117 125 111 141
245 250 247 234 233 235 236 235 235 238 242 245 235 220 204 182 157 197 139 208 221 144 111 239 204 159 79 142 169 26 16 34 137 154 139 235 78 100 72 348 41 126 93 92 96 90 137
241 245 240 229 230 232 230 229 231 232 235 229 227 214 194 209 260 221 223 250 128 48 255 190 179 147 86 10 30 300 59 41 128 85 43 102 58 50 111 54 46 148 85 59 69 107 193
239 245 245 231 228 227 227 225 225 228 229 225 217 212 196 197 202 197 224 102 49 133 319 208 156 124 102 43 40 41 42 41 143 110 38 20 6 311 77 104 69 90 82 25 15 346 232
235 240 244 236 226 223 220 221 221 222 222 219 212 208 209 214 218 345 144 65 182 213 209 49 125 98 123 160 45 28 98 93 32 79 103 136 217 4 344 75 143 64 141 160 203 205 244
236 240 244 234 223 220 215 215 215 217 216 211 194 196 226 235 244 248 89 99 208 206 189 150 77 96 94 76 118 83 61 103 44 22 127 139 61 352 33 79 88 158 123 126 105 38 297
237 237 232 218 218 214 210 209 209 211 206 198 164 176 230 206 177 152 88 214 218 203 184 157 131 147 147 153 89 76 54 255 130 61 215 181 117 30 126 104 55 140 137 124 41 159 248
237 235 233 228 212 209 204 204 204 205 198 180 163 158 178 171 159 66 162 217 228 230 196 158 158 126 135 139 110 108 173 289 137 57 88 130 105 259 203 22 170 142 112 65 103 98 172
240 233 231 230 211 206 200 200 199 197 186 169 157 170 156 163 85 44 159 197 195 253 164 176 112 111 144 136 121 140 178 223 163 224 149 141 124 132 183 301 301 118 142 141 131 182 79
226 234 230 234 212 206 199 195 194 190 181 159 157 148 79 180 136 227 253 220 181 250 221 123 105 100 68 129 111 148 158 118 166 145 161 185 69 97 13 0 348 213 148 110 106 105 188
221 232 226 232 212 204 199 193 191 186 177 176 128 118 2 57 106 142 147 178 170 182 97 85 119 91 105 93 25 154 133 70 93 103 69 90 114 163 189 185 149 176 178 171 139 144 171
223 217 225 224 206 201 199 191 188 185 179 171 86 187 170 180 210 150 137 161 152 169 83 56 67 128 153 120 90 123 134 120 48 152 63 103 152 129 115 23 251 225 183 185 204 170 192
215 215 228 196 200 199 196 191 188 184 179 163 141 132 38 79 132 124 157 193 153 161 123 119 121 130 137 151 177 191 146 189 186 76 85 18 162 130 186 5 11 274 241 209 228 223 252
208 217 190 194 193 197 193 190 188 183 174 159 168 93 107 308 113 116 192 174 183 136 52 61 143 118 106 134 92 65 80 82 110 137 125 97 138 122 242 3 1 315 224 206 195 207 211
207 191 190 186 192 194 192 189 187 182 176 158 159 119 97 168 137 185 170 148 155 177 138 60 71 102 168 128 113 69 60 68 65 49 63 126 100 60 151 10 262 250 183 190 223 237 215
177 182 181 182 191 191 190 187 186 182 184 183 151 132 123 127 171 137 145 118 96 61 77 88 15 345 146 62 75 59 357 25 29 38 29 57 123 97 150 205 303 276 188 187 184 274 214
176 173 175 181 188 188 188 188 182 182 186 201 148 119 107 122 235 138 134 175 137 116 67 71 35 92 67 76 80 132 190 210 212 88 54 57 61 109 135 181 233 248 302 192 162 283 240
167 166 169 179 184 185 185 184 180 180 182 178 138 137 102 110 308 138 162 163 130 104 102 121 156 210 36 80 90 145 204 197 185 175 193 47 18 171 147 235 284 255 271 180 120 255 203
152 160 167 170 175 180 180 179 179 180 182 164 118 161 114 99 35 13 128 132 113 123 137 173 90 318 50 80 131 183 162 205 154 163 180 176 156 185 109 201 275 185 109 177 228 280 249
152 154 154 155 159 164 171 175 178 181 182 173 110 124 118 81 127 87 77 65 6 146 128 183 146 158 167 94 140 118 140 132 117 225 331 234 198 181 196 220 240 221 237 231 184 253 262
Height
801 801 802 804 806 806 807 806 807 807 806 807 806 803 799 800 800 797 796 797 797 798 797 798 796 794 795 795 782 770 768 768 772 776 777 780 785 787 792 790 790 793 787 787 788 788 790
795 796 798 798 803 802 803 803 803 804 804 803 803 801 796 797 798 795 794 795 794 796 795 797 796 794 796 794 770 769 769 770 771 776 778 779 779 780 784 786 787 783 786 788 790 790 793
789 791 792 795 796 798 798 799 799 799 800 800 800 798 794 794 794 793 792 793 793 794 794 795 795 796 796 779 768 768 768 769 769 771 775 775 778 781 782 788 779 784 789 790 793 791 797
781 785 787 787 787 797 794 794 796 796 796 797 796 796 793 792 792 791 791 791 792 793 794 795 796 797 786 767 767 766 765 766 768 771 773 774 777 781 780 781 786 789 794 801 795 792 800
775 778 780 783 782 791 790 790 791 793 792 792 792 793 792 791 790 790 791 790 790 792 794 795 797 796 780 765 765 763 762 764 766 769 772 774 777 782 783 790 795 799 803 806 802 800 799
769 771 774 775 777 784 785 786 787 788 789 789 789 789 790 789 789 789 789 789 791 794 795 797 796 796 772 768 762 761 761 763 764 768 773 776 780 786 790 789 806 804 807 808 804 806 805
762 765 767 770 772 776 780 780 783 784 785 786 786 787 788 787 788 787 788 790 800 799 795 781 780 778 770 766 763 760 761 763 763 769 781 779 784 790 789 788 791 796 802 805 809 813 817
754 757 760 763 766 771 774 776 778 781 782 783 783 784 785 785 786 785 787 787 784 781 782 776 777 776 769 767 768 762 761 766 770 781 777 783 792 786 787 789 794 798 803 811 815 814 816
748 751 753 755 761 764 769 770 775 775 778 779 781 782 783 784 786 786 783 779 779 779 783 774 773 771 766 766 768 766 763 767 775 787 785 791 790 786 790 796 799 806 804 808 811 816 818
740 742 745 747 752 759 762 765 770 771 774 776 778 780 781 783 789 782 781 776 777 778 792 782 773 766 764 763 771 763 763 768 781 791 791 794 790 790 795 799 801 808 802 805 810 810 817
733 734 737 740 743 752 755 760 765 767 770 772 776 778 779 782 778 779 774 775 776 779 815 776 769 760 762 769 769 769 765 766 783 788 790 799 795 797 800 800 797 807 803 805 812 817 819
724 727 731 731 736 744 749 754 760 763 766 767 773 775 778 780 776 772 772 774 777 798 808 777 766 769 771 772 773 771 770 769 779 789 791 796 791 794 795 799 798 803 806 814 821 822 828
714 719 720 724 729 736 743 748 754 758 761 765 768 771 773 774 770 770 771 774 797 804 776 781 776 771 775 781 780 779 786 790 789 800 805 798 800 796 794 799 800 802 809 828 831 832 831
705 708 712 716 722 728 735 743 749 754 757 761 765 769 768 767 767 769 770 782 795 785 783 771 773 775 782 780 785 786 789 794 791 792 806 809 815 801 796 798 804 811 810 826 837 838 831
696 699 702 708 714 721 728 737 743 749 753 758 762 767 768 763 765 769 775 796 790 785 771 774 774 782 785 781 783 789 795 796 796 793 799 809 811 799 799 797 800 813 819 820 838 858 843
689 693 696 698 705 714 722 731 737 744 749 754 758 765 762 761 761 766 779 787 777 770 765 768 781 779 789 786 789 791 793 795 794 793 791 801 813 806 801 800 804 803 814 822 830 841 839
682 686 689 689 697 707 715 724 731 740 745 752 757 763 754 758 761 768 783 781 771 763 762 765 775 780 782 786 789 794 796 795 793 792 791 798 803 812 806 808 807 811 816 829 830 840 836
673 676 680 687 693 701 709 718 726 734 741 751 752 760 752 755 768 780 777 771 762 760 758 760 763 771 779 783 790 792 793 792 794 793 794 800 810 818 811 807 806 806 812 817 827 836 851
667 670 671 680 688 697 704 712 720 729 735 742 750 752 751 753 773 781 770 763 759 759 759 760 766 767 775 785 792 793 794 793 793 793 797 798 812 822 815 811 807 807 814 823 831 836 838
659 659 670 681 685 692 699 707 716 723 731 738 745 754 755 757 761 762 764 763 762 756 759 760 768 769 778 785 790 795 795 794 793 795 800 797 811 808 811 807 810 813 815 819 817 829 829
652 654 665 671 678 687 695 703 711 717 727 733 740 744 744 759 760 759 756 761 763 763 757 759 766 768 776 788 791 795 794 795 795 798 800 799 806 812 818 818 814 810 812 817 814 815 815
642 654 661 666 674 684 692 699 706 714 724 730 736 740 749 754 753 757 760 762 762 762 760 762 768 772 771 780 778 790 789 794 792 799 801 807 813 815 818 822 822 815 812 813 815 815 813
640 649 653 662 672 681 689 696 702 709 720 725 729 730 734 764 758 759 762 761 759 758 765 764 765 773 775 777 779 784 788 790 791 795 806 810 816 819 821 831 824 822 804 803 805 804 798
641 646 654 662 671 680 686 692 698 705 714 717 720 725 739 763 759 755 755 752 756 756 763 770 769 771 782 781 783 785 792 798 799 806 805 815 822 837 826 840 822 792 796 796 796 794 794
635 645 653 661 671 678 684 688 696 703 711 715 717 720 735 765 755 751 753 757 761 764 768 773 776 778 779 781 793 798 808 806 812 814 813 811 823 840 823 825 812 785 794 796 796 782 781
638 646 654 663 670 676 681 686 692 700 710 716 716 718 724 746 751 743 752 755 762 770 774 779 780 780 783 798 801 807 807 802 805 810 817 819 821 816 845 821 815 791 790 790 789 794 778
642 649 656 664 670 673 678 683 690 699 710 714 715 718 722 738 740 741 747 752 757 764 774 779 781 781 784 802 809 806 802 809 804 812 825 825 835 823 852 819 809 792 791 790 797 790 782
644 653 661 665 668 672 676 681 688 698 708 712 715 719 722 736 740 739 740 747 753 755 766 775 781 784 794 797 802 808 809 807 807 805 811 808 820 825 849 829 809 791 791 793 782 781 780
653 658 662 666 668 671 674 680 688 698 707 712 716 720 722 727 740 741 742 742 743 743 754 769 763 772 774 792 809 816 813 823 816 800 811 806 801 801 805 795 787 787 782 780 782 781 779